Regional Weather Roundup
Issued by NWS Cleveland, OH

Home | Current Version | Previous Version | Graphics & Text | Print | Product List | Glossary On
Versions: 1 2 3 4 5 6 7 8 9 10 11 12 13 14 15 16 17 18 19 20 21 22 23 24 25 26 27 28 29 30 31 32 33 34 35 36 37 38 39 40 41 42 43 44 45 46 47 48 49 50
000
ASUS41 KCLE 280802
RWRCLE
OHIO REGIONAL WEATHER ROUNDUP
NATIONAL WEATHER SERVICE CLEVELAND, OH
400 AM EDT THU JUL 28 2016

NOTE: "FAIR" INDICATES FEW OR NO CLOUDS BELOW 12,000 FEET WITH NO
SIGNIFICANT WEATHER AND/OR OBSTRUCTIONS TO VISIBILITY.

OHZ001>008-015>018-024>027-034-035-043-044-280900-
   NORTHWEST OHIO

CITY           SKY/WX    TMP DP  RH WIND       PRES   REMARKS
DEFIANCE       CLOUDY    71  65  81 N5        29.91S
FINDLAY        CLOUDY    71  61  70 CALM      29.90F
TOLEDO EXPRESS PTCLDY    67  67 100 CALM      29.91
TOLEDO EXEC    PTCLDY    72  65  78 CALM      29.91F
LIMA           LGT RAIN  71  67  87 S3        29.91F
$$

OHZ009>014-019>023-028>033-038-089-280900-
   NORTHEAST OHIO

CITY           SKY/WX    TMP DP  RH WIND       PRES   REMARKS
CLE-HOPKINS    CLOUDY    69  60  73 CALM      29.93F
CLE-LAKEFRONT  MOCLDY    75  59  57 SE8       29.89F
CUY CO. ARPT   NOT AVBL
LORAIN-ELYRIA  CLOUDY    64  60  87 CALM      29.92F
ASHTABULA      CLOUDY    63  62  97 CALM      29.94S
AKRON-CANTON   MOCLDY    70  60  70 NE3       29.93F
WOOSTER        MOCLDY    66  61  84 CALM      29.94F
MANSFIELD      MOCLDY    72  61  68 S5        29.94F
YOUNGSTOWN     MOCLDY    66  61  84 E3        29.94F
$$

OHZ042-051>053-060>062-070>072-077>081-280900-
  SOUTHWEST OHIO

CITY           SKY/WX    TMP DP  RH WIND       PRES   REMARKS
CINC-COVINGTON LGT RAIN  75  73  93 E5        29.91F
CINC-LUNKEN    TSTM      74  74 100 CALM      29.91S FOG
HAMILTON       MOCLDY    74  70  87 CALM      29.91F
DAYTON         CLOUDY    74  64  71 NW3       29.93F
WRIGHT-PAT AFB CLOUDY    75  67  76 NE1       29.91F
DAYTON GENERAL CLOUDY    75  66  73 CALM      29.91F
WILMINGTON     CLOUDY    74  70  87 S3        29.92F
$$

OHZ036-037-039>041-045>050-054>059-063>069-073>076-082>088-280900-
  CENTRAL AND SOUTHEAST OHIO

CITY           SKY/WX    TMP DP  RH WIND       PRES   REMARKS
COLUMBUS       CLOUDY    77  65  66 SE5       29.90F
OSU AIRPORT    LGT RAIN  75  66  73 E5        29.90F
BOLTON FIELD   PTCLDY    74  70  86 CALM      29.91F
RICKENBACK AFB NOT AVBL
NEWARK         CLOUDY    74  66  76 CALM      29.91F
MARION         CLOUDY    72  62  71 CALM      29.92F
LANCASTER      CLOUDY    76  74  93 SE3       29.91F
ZANESVILLE     CLOUDY    76  70  82 CALM      29.92F
NEW PHILLY     PTCLDY    71  63  75 CALM      29.92F
$$




USA.gov is the U.S. government's official web portal to all federal, state and local government web resources and services.